Le nostre stazioni meteo in Italia

Pubblicità
Il mio iltempo24.it
Lons-Le-Saunier, Francia (7390): Temperatura & dewpoint: 07.12.2019 23:00:00 - 13.12.2019 23:00:00 (CET)Lons-Le-Saunier, Francia (7390): velocità del vento & gusts: 07.12.2019 23:00:00 - 13.12.2019 23:00:00 (CET)Lons-Le-Saunier, Francia (7390): direzione del vento: 07.12.2019 23:00:00 - 13.12.2019 23:00:00 (CET)Lons-Le-Saunier, Francia (7390): precipitazioni: 07.12.2019 23:00:00 - 13.12.2019 23:00:00 (CET)
Data & Tempo tt [°C] td [°C] ff [km/h] ff [kn] fx [km/h] fx [kn] dd rr [mm]
13.12.2019 23:00:00 5,2 3,4 15 8 24 13 SE 0,0
13.12.2019 22:00:00 5,4 2,9 11 6 28 15 S 0,0
13.12.2019 21:00:00 5,6 2,8 15 8 24 13 S 0,0
13.12.2019 20:00:00 4,4 2,6 15 8 31 17 SSO 0,0
13.12.2019 19:00:00 4,7 2,6 22 12 31 17 SSO -
13.12.2019 18:00:00 4,1 2,6 15 8 28 15 S 0,0
13.12.2019 17:00:00 4,7 2,4 13 7 24 13 SSO 0,0
13.12.2019 16:00:00 4,6 3,4 13 7 29 16 SSO 0,4
13.12.2019 15:00:00 4,2 3,0 11 6 59 32 SSO 0,6
13.12.2019 14:00:00 4,7 2,4 34 18 54 29 ONO 0,2
13.12.2019 13:00:00 5,7 4,5 8 4 55 30 S -
13.12.2019 12:00:00 5,6 2,8 31 17 52 28 OSO 0,2
13.12.2019 11:00:00 6,1 4,3 22 12 39 21 O 1,0
13.12.2019 10:00:00 6,6 4,1 24 13 54 29 OSO 0,6
13.12.2019 09:00:00 6,2 5,0 28 15 44 24 SO 0,4
13.12.2019 08:00:00 6,4 5,7 24 13 70 38 SO 1,0
13.12.2019 07:00:00 6,9 6,2 24 13 76 41 OSO -
13.12.2019 06:00:00 6,9 5,4 37 20 63 34 S 0,6
13.12.2019 05:00:00 6,2 5,2 31 17 57 31 S 3,0
13.12.2019 04:00:00 6,0 4,6 29 16 52 28 S 2,0
13.12.2019 03:00:00 6,4 3,9 24 13 46 25 S 0,0
13.12.2019 02:00:00 5,9 3,6 24 13 48 26 S 0,0
13.12.2019 01:00:00 5,3 3,0 22 12 63 34 SSO -
13.12.2019 00:00:00 5,0 2,5 28 15 68 37 SSO 0,0
12.12.2019 23:00:00 4,7 2,2 37 20 72 39 S 0,2
12.12.2019 22:00:00 3,5 2,0 24 13 48 26 S 0,2
12.12.2019 21:00:00 4,4 0,5 26 14 48 26 S 0,0
12.12.2019 20:00:00 5,2 -1,7 21 11 37 20 S 0,0
12.12.2019 19:00:00 4,6 -1,8 21 11 34 18 S -
12.12.2019 18:00:00 4,4 -1,0 15 8 35 19 S 0,0
12.12.2019 17:00:00 4,3 -0,7 15 8 37 20 S 0,0
12.12.2019 16:00:00 5,5 -0,4 21 11 37 20 S 0,0
12.12.2019 15:00:00 5,8 0,9 21 11 41 22 S 0,0
12.12.2019 14:00:00 6,0 2,1 16 9 37 20 SSE 0,0
12.12.2019 13:00:00 5,1 1,6 18 10 28 15 S -
12.12.2019 12:00:00 4,4 2,3 13 7 24 13 S 0,0
12.12.2019 11:00:00 3,9 1,9 15 8 29 16 SSO 0,0
12.12.2019 10:00:00 3,3 1,8 13 7 24 13 SSO 0,0
12.12.2019 09:00:00 2,7 1,7 15 8 26 14 SSO 0,0
12.12.2019 08:00:00 2,6 1,7 13 7 24 13 SO 0,0
12.12.2019 07:00:00 2,6 2,0 13 7 26 14 SSO -
12.12.2019 06:00:00 2,7 2,1 16 9 34 18 SO 0,2
12.12.2019 05:00:00 3,3 1,7 15 8 29 16 SSO 0,0
12.12.2019 04:00:00 3,4 2,5 18 10 41 22 SO 0,0
12.12.2019 03:00:00 3,8 2,6 26 14 39 21 SSO 0,2
12.12.2019 02:00:00 3,3 2,9 16 9 44 24 SSO 0,8
12.12.2019 01:00:00 3,8 2,8 16 9 35 19 SSO -
12.12.2019 00:00:00 4,4 2,3 8 4 24 13 S 0,0
11.12.2019 23:00:00 4,1 2,4 15 8 29 16 SE 0,0
11.12.2019 22:00:00 4,6 3,3 15 8 22 12 SSE 0,0
11.12.2019 21:00:00 4,5 3,2 9 5 21 11 S 0,0
11.12.2019 20:00:00 4,9 3,4 11 6 21 11 S 0,0
11.12.2019 19:00:00 5,0 3,8 9 5 26 14 S -
11.12.2019 18:00:00 5,0 4,0 18 10 31 17 SSO 0,0
11.12.2019 17:00:00 4,7 3,8 15 8 35 19 S 2,0
11.12.2019 16:00:00 4,1 3,8 21 11 42 23 SSO 3,0
11.12.2019 15:00:00 3,7 3,4 8 4 22 12 SSO 3,0
11.12.2019 14:00:00 4,1 2,8 13 7 21 11 SO 0,6
11.12.2019 13:00:00 4,8 0,9 16 9 34 18 SO -
11.12.2019 12:00:00 7,6 -0,9 22 12 42 23 SSO 0,0
11.12.2019 11:00:00 6,2 -0,5 21 11 31 17 SSE 0,0
11.12.2019 10:00:00 2,0 0,5 8 4 18 10 SE 0,2
11.12.2019 09:00:00 2,4 0,1 4 2 15 8 SSE 0,0
11.12.2019 08:00:00 1,7 0,1 8 4 16 9 SSE 0,0
11.12.2019 07:00:00 1,8 -0,3 11 6 16 9 SSO -
11.12.2019 06:00:00 1,7 -0,4 9 5 15 8 SSO 0,0
11.12.2019 05:00:00 3,0 -1,0 8 4 16 9 SE 0,0
11.12.2019 04:00:00 2,2 -0,9 8 4 15 8 SE 0,0
11.12.2019 03:00:00 1,9 -0,8 9 5 15 8 SE 0,0
11.12.2019 02:00:00 2,0 -1,1 8 4 16 9 SE 0,0
11.12.2019 01:00:00 1,1 -0,7 9 5 13 7 SE -
11.12.2019 00:00:00 1,6 -0,5 8 4 11 6 SE 0,0
10.12.2019 23:00:00 1,1 -0,2 9 5 16 9 ESE 0,0
10.12.2019 22:00:00 0,8 -0,4 11 6 15 8 ESE 0,0
10.12.2019 21:00:00 0,7 -0,6 8 4 13 7 SE 0,0
10.12.2019 20:00:00 1,3 -0,2 8 4 9 5 ESE 0,0
10.12.2019 19:00:00 2,1 0,6 8 4 11 6 ESE -
10.12.2019 18:00:00 3,3 0,0 5 3 11 6 SE 0,0
10.12.2019 17:00:00 4,5 -0,1 8 4 13 7 NO 0,0
10.12.2019 16:00:00 6,0 0,9 5 3 13 7 NNO 0,0
10.12.2019 15:00:00 6,1 1,0 9 5 15 8 NE 0,0
10.12.2019 14:00:00 6,3 1,4 8 4 16 9 N 0,0
10.12.2019 13:00:00 5,9 1,8 11 6 18 10 NO -
10.12.2019 12:00:00 5,5 2,7 5 3 22 12 N 0,0
10.12.2019 11:00:00 4,3 2,3 8 4 13 7 NNO 0,0
10.12.2019 10:00:00 3,2 1,7 8 4 11 6 NNO 0,0
10.12.2019 09:00:00 2,1 1,4 0 0 9 5 N 0,0
10.12.2019 08:00:00 1,7 0,8 5 3 11 6 E 0,0
10.12.2019 07:00:00 3,3 1,3 8 4 13 7 NNE -
10.12.2019 06:00:00 3,7 1,9 4 2 15 8 N 0,0
10.12.2019 05:00:00 4,0 2,0 9 5 21 11 NNO 0,0
10.12.2019 04:00:00 4,2 2,1 9 5 18 10 NNO 0,0
10.12.2019 03:00:00 4,5 2,0 11 6 21 11 NNO 0,0
10.12.2019 02:00:00 4,7 2,1 13 7 35 19 N 0,0
10.12.2019 01:00:00 5,0 2,2 15 8 29 16 NO -
10.12.2019 00:00:00 5,1 2,4 9 5 18 10 ONO 0,0
09.12.2019 23:00:00 5,3 2,6 11 6 24 13 NO 0,0
09.12.2019 22:00:00 5,4 3,2 11 6 18 10 ONO 0,0
09.12.2019 21:00:00 5,3 3,9 4 2 9 5 O 0,0
09.12.2019 20:00:00 5,3 3,9 8 4 34 18 ONO 0,0
09.12.2019 19:00:00 5,5 4,3 21 11 50 27 NO -
09.12.2019 18:00:00 5,8 4,3 13 7 52 28 O 0,4
09.12.2019 17:00:00 6,9 5,2 16 9 34 18 O 0,2
09.12.2019 16:00:00 7,2 5,8 18 10 55 30 O 0,8
09.12.2019 15:00:00 7,2 6,1 21 11 39 21 SO 0,8
09.12.2019 14:00:00 7,2 6,0 26 14 46 25 SO 0,6
09.12.2019 13:00:00 7,2 6,0 18 10 42 23 OSO -
09.12.2019 12:00:00 7,2 5,0 28 15 44 24 SO 0,6
09.12.2019 11:00:00 6,8 4,8 29 16 52 28 SSO 0,4
09.12.2019 10:00:00 7,0 4,5 34 18 59 32 SSO 0,2
09.12.2019 09:00:00 7,8 3,6 28 15 59 32 SSO 0,0
09.12.2019 08:00:00 7,6 3,8 29 16 48 26 SSO 0,0
09.12.2019 07:00:00 7,7 3,7 29 16 52 28 SSO -
09.12.2019 06:00:00 8,1 3,7 28 15 48 26 SO 0,2
09.12.2019 05:00:00 7,0 4,1 16 9 31 17 SSO 0,0
09.12.2019 04:00:00 7,3 4,3 24 13 46 25 OSO 0,4
09.12.2019 03:00:00 9,1 2,6 22 12 41 22 SSO 0,0
09.12.2019 02:00:00 7,7 3,0 18 10 35 19 S 0,0
09.12.2019 01:00:00 8,0 3,8 21 11 41 22 SSO -
09.12.2019 00:00:00 8,8 5,0 21 11 42 23 SO 0,0
08.12.2019 23:00:00 9,4 7,3 28 15 52 28 OSO 0,0
08.12.2019 22:00:00 10,5 8,1 18 10 37 20 SSO 0,0
08.12.2019 21:00:00 10,1 8,0 21 11 37 20 SSO 0,0
08.12.2019 20:00:00 9,1 8,2 21 11 35 19 SSO 0,4
08.12.2019 19:00:00 9,7 7,0 21 11 35 19 SSO -
08.12.2019 18:00:00 10,3 6,4 21 11 35 19 S 0,2
08.12.2019 17:00:00 10,5 6,3 18 10 39 21 S 0,4
08.12.2019 16:00:00 11,3 5,6 16 9 29 16 S 0,0
08.12.2019 15:00:00 11,5 6,2 16 9 34 18 SSO 0,0
08.12.2019 14:00:00 11,9 6,0 22 12 42 23 S 0,0
08.12.2019 13:00:00 11,7 6,4 18 10 31 17 SSO -
08.12.2019 12:00:00 11,6 6,3 13 7 34 18 S 0,0
08.12.2019 11:00:00 9,7 6,6 11 6 26 14 S 0,0
08.12.2019 10:00:00 8,0 6,0 15 8 22 12 SSO 0,0
08.12.2019 09:00:00 7,9 6,2 11 6 22 12 SO 0,0
08.12.2019 08:00:00 9,3 5,8 13 7 21 11 SSE 0,0
08.12.2019 07:00:00 8,7 6,0 11 6 24 13 S -
08.12.2019 06:00:00 8,5 5,9 11 6 18 10 SE 0,0
08.12.2019 05:00:00 8,9 6,0 15 8 24 13 S 0,0
08.12.2019 04:00:00 8,7 6,1 11 6 16 9 SSE 0,0
08.12.2019 03:00:00 8,0 6,5 8 4 16 9 SE 0,0
08.12.2019 02:00:00 8,2 6,3 9 5 15 8 S 0,2
08.12.2019 01:00:00 7,9 6,8 9 5 13 7 SSE -
08.12.2019 00:00:00 8,2 7,3 5 3 11 6 SSE 0,0
07.12.2019 23:00:00 8,2 7,1 8 4 9 5 SSE 0,0

tt = Temperatura
td = dewpoint
ff = velocità del vento
fx = gusts
dd = direzione del vento
rr = precipitazioni

Stazioni seguenti

WeatherPro
AMSI
MeteoEarth